Regional Weather Roundup
Issued by NWS

Home | Current Version | Previous Version | Graphics & Text | Print | Product List | Glossary On
Versions: 1 2 3 4 5 6 7 8 9 10 11 12 13 14 15 16 17 18 19 20 21 22 23 24 25 26 27 28 29 30 31 32 33 34 35 36 37 38 39 40 41 42 43 44 45 46 47 48 49 50
000
ASUS45 KCYS 250210
RWRWY

WYOMING REGIONAL WEATHER ROUNDUP
NATIONAL WEATHER SERVICE CHEYENNE WY
800 PM MDT TUE APR 24 2018

NOTE:  "FAIR" INDICATES FEW OR NO CLOUDS BELOW 12,000 FEET
WITH NO SIGNIFICANT WEATHER AND/OR OBSTRUCTIONS TO VISIBILITY.

WYZ001-250300-
YELLOWSTONE NATIONAL PARK

CITY           SKY/WX    TMP DP  RH WIND       PRES   REMARKS
LK YELLOWSTONE   N/A     30  17  58 CALM      30.41F
W YELLOWSTONE  NOT AVBL

$$
WYZ002>013-054>058-071-098>099-250300-
NORTHERN WYOMING

CITY           SKY/WX    TMP DP  RH WIND       PRES   REMARKS
JACKSON        FAIR      45  18  34 N7        30.35S
CODY           FAIR      46  21  37 SE9       30.37F
GREYBULL       FAIR      49  29  46 S6        30.37F
WORLAND        FAIR      47  26  44 CALM      30.38F
SHERIDAN       FAIR      49  22  34 S3        30.36F
BUFFALO        FAIR      44  24  45 E3        30.39F
GILLETTE       FAIR      43  25  49 CALM      30.39F
HULETT         FAIR      41  25  52 CALM      30.41S
NEWCASTLE      FAIR      37  23  56 N7        30.41S WCI  32

$$
WYZ014>020-022>026-101>103-250300-
CENTRAL WYOMING

CITY           SKY/WX    TMP DP  RH WIND       PRES   REMARKS
BIG PINEY      FAIR      45  18  34 CALM      30.36S
PINEDALE       FAIR      45  19  36 NW5       30.36S
DUBOIS         FAIR      39  21  48 SE9       30.37S WCI  33
LANDER         FAIR      42  23  46 E3        30.38F
RIVERTON       FAIR      42  22  44 SE6       30.40S
CASPER         FAIR      39  24  55 CALM      30.41F
DOUGLAS        CLOUDY    38  26  62 NW7       30.42S WCI  33

$$
WYZ021-027>030-104>119-250300-
SOUTHERN WYOMING

CITY           SKY/WX    TMP DP  RH WIND       PRES   REMARKS
EVANSTON       FAIR      47  19  33 E13       30.34S
KEMMERER       FAIR      43  18  36 E6        30.37S
FORT BRIDGER   FAIR      46  17  31 E6        30.39S
ROCK SPRINGS   FAIR      39  18  42 E12       30.39S WCI  32
DIXON          FAIR      38  19  45 N17G25    30.38R WCI  29
RAWLINS        FAIR      32  19  58 NE8       30.40F WCI  25
SARATOGA       FAIR      32  19  59 NW9       30.40R WCI  24
LARAMIE        CLOUDY    32  22  66 NE9       30.37R WCI  24
CHEYENNE       CLOUDY    35  25  66 N10       30.39R WCI  27
TORRINGTON     CLOUDY    40  32  73 NE6       30.40S
PINE BLUFFS    CLOUDY    36  28  75 MISG      30.40S

$$



USA.gov is the U.S. government's official web portal to all federal, state and local government web resources and services.